Weather Roundup
Issued by NWS Chicago, IL

Home | Current Version | Previous Version | Graphics & Text | Print | Product List | Glossary On
Versions: 1 2 3 4 5 6 7 8 9 10 11 12 13 14 15 16 17 18 19 20 21 22 23 24 25 26 27 28 29 30 31 32 33 34 35 36 37 38 39 40 41 42 43 44 45 46 47 48 49 50
000
NZUS59 KLOT 101703
HRRLOT

CHICAGO AREA WEATHER ROUNDUP
NATIONAL WEATHER SERVICE CHICAGO/ROMEOVILLE IL
1100 AM CST SUN DEC 10 2017

NOTE: "FAIR" INDICATES FEW OR NO CLOUDS BELOW 12,000 FEET WITH NO
SIGNIFICANT WEATHER AND/OR OBSTRUCTIONS TO VISIBILITY.

* THESE STATIONS ARE NOT UNDER NWS QUALITY CONTROL. THEY ALSO MAY NOT
  REPORT WEATHER SUCH AS PRECIPITATION OR FOG.

ILZ005-006-012>014-019>023-101800-
NORTHEAST ILLINOIS

CITY           SKY/WX    TMP DP  RH WIND       PRES   REMARKS
OHARE          PTSUNNY   31  18  58 W12G22    29.88F WCI  22
MIDWAY         PTSUNNY   32  20  61 W12       29.89F WCI  23
AURORA         SUNNY     32  20  61 W14       29.89F WCI  22
LANSING*       SUNNY     32  22  67 SW18      29.91F WCI  20
WAUKEGAN       CLOUDY    29  19  66 W9G16     29.86F WCI  20
DUPAGE AIRPORT SUNNY     31  20  63 W12       29.88F WCI  22
WHEELING       MOSUNNY   32  20  61 W15       29.90F WCI  22
KANKAKEE*      SUNNY     35  19  51 SW23      29.93F WCI  23
MORRIS*        SUNNY     33  19  56 W14       29.90F WCI  23
LEWIS AIRPORT* SUNNY     33  21  61 W16       29.90F WCI  23
NORTHERLY ISL    N/A     31  18  58 W7          N/A  WCI  24
$$

WIZ051-052-058>065-066-070>072-101800-
SOUTHEAST WISCONSIN

CITY           SKY/WX    TMP DP  RH WIND       PRES   REMARKS
MILWAUKEE      CLOUDY    27  18  69 W10       29.87S WCI  17
KENOSHA*       CLOUDY    28  18  66 W12       29.87F WCI  18
RACINE*        CLOUDY    27  18  69 W13G21    29.88F WCI  16
WAUKESHA       CLOUDY    23  18  80 W10       29.88S WCI  12
WEST BEND      CLOUDY    25  19  80 W8        29.86S WCI  16
$$

INZ001>003-010>013-019-020-101800-
NORTHWEST INDIANA

CITY           SKY/WX    TMP DP  RH WIND       PRES   REMARKS
GARY*          PTSUNNY   32  18  55 SW17G29   29.91F WCI  21
MICHIGAN CITY* NOT AVBL
RENSSELAER*    NOT AVBL
VALPARAISO     SUNNY     30  20  66 SW17      29.91F WCI  18
$$

LMZ740>746-101800-
SOUTHERN LAKE MICHIGAN

STATION/POSITION TIME  SKY/WX   TEMP WIND        PRES    VSBY
                                AIR  DIR/SP/G
                 (UTC)          (F)  (DEG/KT/KT) (MB)    (MI)
HARRISON CRIB    1640            31  240/ 14/ 18   N/A
BURNHAM HARBOR   1700            32  240/ 10/ 15   N/A
CALUMET HARBOR   1630            31  220/ 10/ 17 1012.0F
BURNS HARBOR     1640            31  220/ 17/ 22 1013.2F
MICHIGAN CITY    1640            28  200/ 18/ 23   N/A
$$

ABBREVIATIONS USED IN REMARKS
   TC - TEMPERATURE IN CELSIUS
  WCI - WIND CHILL INDEX
   HX - HEAT INDEX
  VSB - VISIBILITY
$$




USA.gov is the U.S. government's official web portal to all federal, state and local government web resources and services.